Walnut Ridge, AR

4:49 PM CDT on March 28, 2017 (GMT -0500)
Walnut Ridge Regional

Weather History for KARG - December, 2010

Change the Weather History Date:

Tuesday, December 7, 2010

  Actual Average Record
Temperature  
Mean Temperature 30 °F -  
Max Temperature 37 °F 49 °F 64 °F (1998)
Min Temperature 24 °F 34 °F 12 °F (2013)
Degree Days  
Heating Degree Days 34    
Moisture  
Dew Point 19 °F    
Average Humidity 62    
Maximum Humidity 80    
Minimum Humidity 48    
Precipitation  
Precipitation 0.00 in - - ()
Sea Level Pressure  
Sea Level Pressure 30.24 in    
Wind  
Wind Speed 5 mph (NW)    
Max Wind Speed 8 mph    
Max Gust Speed -    
Visibility 10 miles    
Events      
Averages and records for this station are not official NWS values.
T = Trace of Precipitation, MM = Missing Value Source: NWS Daily Summary

Daily Weather History Graph

Daily Weather History Graph

Search for Another Location

Airport or City:

Trip Planner

Search our weather history database for the weather conditions in past years. The results will help you decide how hot, cold, wet, or windy it might be!

Date:

Astronomy

Dec. 07, 2010 Rise Set
Actual Time 7:01 AM CST 4:48 PM CST
Civil Twilight 6:32 AM CST 5:17 PM CST
Nautical Twilight 6:00 AM CST 5:49 PM CST
Astronomical Twilight 5:29 AM CST 6:20 PM CST
Moon 8:46 AM CST (12/7) 6:48 PM CST (12/7)
Length of Visible Light 10h 44m
Length of Day
9h 47m
Waxing Crescent, 5% of the Moon is Illuminated
Dec 7
Waxing Crescent
Dec 13
First Quarter
Dec 21
Full
Dec 27
Last Quarter
Jan 4
New

Hourly Weather History & Observations

Time (CST) Temp. Windchill Dew Point Humidity Pressure Visibility Wind Dir Wind Speed Gust Speed Precip Events Conditions
12:15 AM 30.2 °F 26.7 °F 17.6 °F 60% 30.22 in 10.0 mi West 3.5 mph - N/A   Clear
12:35 AM 30.2 °F 25.4 °F 17.6 °F 60% 30.22 in 10.0 mi West 4.6 mph - N/A   Clear
12:55 AM 28.4 °F 21.2 °F 17.6 °F 64% 30.22 in 10.0 mi WNW 6.9 mph - N/A   Clear
1:15 AM 28.4 °F 20.4 °F 17.6 °F 64% 30.22 in 10.0 mi West 8.1 mph - N/A   Clear
1:35 AM 28.4 °F 20.4 °F 17.6 °F 64% 30.23 in 10.0 mi WNW 8.1 mph - N/A   Clear
1:55 AM 30.2 °F 23.4 °F 17.6 °F 60% 30.23 in 10.0 mi WNW 6.9 mph - N/A   Clear
2:15 AM 28.4 °F 23.3 °F 17.6 °F 64% 30.24 in 10.0 mi WNW 4.6 mph - N/A   Clear
2:35 AM 26.6 °F 22.6 °F 17.6 °F 69% 30.23 in 10.0 mi NW 3.5 mph - N/A   Clear
2:55 AM 28.4 °F 23.3 °F 17.6 °F 64% 30.23 in 10.0 mi WNW 4.6 mph - N/A   Clear
3:15 AM 28.4 °F 23.3 °F 17.6 °F 64% 30.23 in 10.0 mi West 4.6 mph - N/A   Clear
3:35 AM 28.4 °F 24.6 °F 17.6 °F 64% 30.23 in 10.0 mi WNW 3.5 mph - N/A   Clear
3:55 AM 26.6 °F 22.6 °F 17.6 °F 69% 30.23 in 10.0 mi NW 3.5 mph - N/A   Clear
4:15 AM 26.6 °F 22.6 °F 17.6 °F 69% 30.23 in 10.0 mi West 3.5 mph - N/A   Clear
4:35 AM 26.6 °F 22.6 °F 17.6 °F 69% 30.23 in 10.0 mi WNW 3.5 mph - N/A   Clear
4:55 AM 26.6 °F 22.6 °F 17.6 °F 69% 30.23 in 10.0 mi WNW 3.5 mph - N/A   Clear
5:15 AM 26.6 °F 22.6 °F 17.6 °F 69% 30.23 in 10.0 mi WNW 3.5 mph - N/A   Clear
5:35 AM 26.6 °F 21.2 °F 17.6 °F 69% 30.23 in 10.0 mi NW 4.6 mph - N/A   Clear
5:55 AM 26.6 °F 20.0 °F 17.6 °F 69% 30.23 in 10.0 mi NW 5.8 mph - N/A   Clear
6:15 AM 26.6 °F 21.2 °F 17.6 °F 69% 30.23 in 10.0 mi WNW 4.6 mph - N/A   Clear
6:35 AM 26.6 °F 21.2 °F 17.6 °F 69% 30.24 in 10.0 mi WNW 4.6 mph - N/A   Clear
6:55 AM 24.8 °F 20.5 °F 15.8 °F 69% 30.25 in 10.0 mi NW 3.5 mph - N/A   Clear
7:15 AM 24.8 °F 19.1 °F 17.6 °F 74% 30.25 in 10.0 mi NW 4.6 mph - N/A   Clear
7:35 AM 24.8 °F 20.5 °F 17.6 °F 74% 30.25 in 10.0 mi NNW 3.5 mph - N/A   Clear
7:55 AM 24.8 °F 20.5 °F 19.4 °F 80% 30.26 in 10.0 mi WNW 3.5 mph - N/A   Clear
8:15 AM 28.4 °F 23.3 °F 19.4 °F 69% 30.27 in 10.0 mi WNW 4.6 mph - N/A   Clear
8:35 AM 28.4 °F 22.2 °F 21.2 °F 74% 30.28 in 10.0 mi NNW 5.8 mph - N/A   Clear
8:55 AM 30.2 °F 23.4 °F 21.2 °F 69% 30.28 in 9.0 mi NNW 6.9 mph - N/A   Clear
9:15 AM 30.2 °F 22.6 °F 19.4 °F 64% 30.29 in 9.0 mi North 8.1 mph - N/A   Clear
9:35 AM 32.0 °F 25.6 °F 19.4 °F 60% 30.29 in 10.0 mi North 6.9 mph - N/A   Clear
9:55 AM 32.0 °F 25.6 °F 19.4 °F 60% 30.29 in 10.0 mi North 6.9 mph - N/A   Clear
10:35 AM 33.8 °F 27.0 °F 19.4 °F 56% 30.29 in 9.0 mi North 8.1 mph - N/A   Clear
10:55 AM 33.8 °F 27.7 °F 19.4 °F 56% 30.28 in 4.0 mi NNE 6.9 mph - N/A   Clear
11:15 AM 33.8 °F 28.6 °F 19.4 °F 56% 30.28 in 5.0 mi NNE 5.8 mph - N/A   Clear
11:35 AM 33.8 °F - 17.6 °F 52% 30.27 in 8.0 mi Calm Calm - N/A   Clear
11:55 AM 35.6 °F - 17.6 °F 48% 30.26 in 9.0 mi Calm Calm - N/A   Clear
12:15 PM 35.6 °F - 19.4 °F 52% 30.26 in 10.0 mi Calm Calm - N/A   Clear
12:35 PM 35.6 °F - 19.4 °F 52% 30.24 in 10.0 mi Calm Calm - N/A   Clear
12:55 PM 37.4 °F 34.9 °F 19.4 °F 48% 30.24 in 8.0 mi NE 3.5 mph - N/A   Clear
1:15 PM 37.4 °F - 19.4 °F 48% 30.23 in 7.0 mi Calm Calm - N/A   Clear
1:35 PM 37.4 °F 34.9 °F 19.4 °F 48% 30.23 in 8.0 mi NE 3.5 mph - N/A   Clear
1:55 PM 37.4 °F 34.9 °F 19.4 °F 48% 30.22 in 10.0 mi NNE 3.5 mph - N/A   Clear
2:15 PM 37.4 °F 33.8 °F 21.2 °F 52% 30.23 in 10.0 mi South 4.6 mph - N/A   Clear
2:35 PM 37.4 °F 32.1 °F 21.2 °F 52% 30.22 in 10.0 mi SE 6.9 mph - N/A   Clear
2:55 PM 37.4 °F 32.8 °F 21.2 °F 52% 30.22 in 10.0 mi ESE 5.8 mph - N/A   Clear
3:15 PM 37.4 °F 32.8 °F 21.2 °F 52% 30.21 in 10.0 mi ESE 5.8 mph - N/A   Clear
3:35 PM 37.4 °F 32.8 °F 21.2 °F 52% 30.20 in 10.0 mi ESE 5.8 mph - N/A   Clear
3:55 PM 37.4 °F 32.8 °F 21.2 °F 52% 30.20 in 10.0 mi ESE 5.8 mph - N/A   Clear
4:35 PM 35.6 °F 30.7 °F 21.2 °F 56% 30.22 in 10.0 mi SSE 5.8 mph - N/A   Clear
4:55 PM 33.8 °F 29.6 °F 23.0 °F 65% 30.22 in 10.0 mi SSE 4.6 mph - N/A   Clear
5:15 PM 33.8 °F 29.6 °F 23.0 °F 65% 30.23 in 10.0 mi ESE 4.6 mph - N/A   Clear
5:35 PM 32.0 °F 26.4 °F 21.2 °F 64% 30.23 in 10.0 mi East 5.8 mph - N/A   Clear
5:55 PM 33.8 °F 29.6 °F 23.0 °F 65% 30.23 in 10.0 mi ESE 4.6 mph - N/A   Clear
6:15 PM 33.8 °F 29.6 °F 23.0 °F 65% 30.23 in 10.0 mi East 4.6 mph - N/A   Clear
6:35 PM 33.8 °F 30.8 °F 21.2 °F 60% 30.24 in 10.0 mi East 3.5 mph - N/A   Clear
6:55 PM 30.2 °F 24.3 °F 23.0 °F 75% 30.25 in 10.0 mi ENE 5.8 mph - N/A   Clear
7:15 PM 30.2 °F 23.4 °F 21.2 °F 69% 30.26 in 10.0 mi East 6.9 mph - N/A   Clear
7:35 PM 30.2 °F 24.3 °F 21.2 °F 69% 30.27 in 10.0 mi East 5.8 mph - N/A   Clear
7:55 PM 30.2 °F 24.3 °F 21.2 °F 69% 30.28 in 10.0 mi East 5.8 mph - N/A   Clear
8:15 PM 30.2 °F 24.3 °F 21.2 °F 69% 30.29 in 10.0 mi East 5.8 mph - N/A   Clear
8:35 PM 30.2 °F 23.4 °F 19.4 °F 64% 30.29 in 10.0 mi East 6.9 mph - N/A   Clear
8:55 PM 30.2 °F 24.3 °F 21.2 °F 69% 30.30 in 10.0 mi ENE 5.8 mph - N/A   Clear
9:15 PM 30.2 °F 21.9 °F 21.2 °F 69% 30.30 in 10.0 mi ENE 9.2 mph - N/A   Clear
9:35 PM 28.4 °F 21.2 °F 21.2 °F 74% 30.30 in 9.0 mi ENE 6.9 mph - N/A   Clear
9:55 PM 28.4 °F 19.1 °F 21.2 °F 74% 30.29 in 9.0 mi ENE 10.4 mph - N/A   Clear
10:15 PM 28.4 °F 19.1 °F 21.2 °F 74% 30.29 in 8.0 mi ENE 10.4 mph - N/A   Clear
10:35 PM 28.4 °F 18.5 °F 19.4 °F 69% 30.29 in 8.0 mi ENE 11.5 mph - N/A   Clear
10:55 PM 28.4 °F 20.4 °F 19.4 °F 69% 30.28 in 8.0 mi ENE 8.1 mph - N/A   Clear
11:15 PM 28.4 °F 20.4 °F 21.2 °F 74% 30.28 in 8.0 mi ENE 8.1 mph - N/A   Clear
11:35 PM 28.4 °F 20.4 °F 19.4 °F 69% 30.28 in 8.0 mi ENE 8.1 mph - N/A   Clear
11:55 PM 28.4 °F 20.4 °F 19.4 °F 69% 30.27 in 8.0 mi ENE 8.1 mph - N/A   Clear